UAL1442 KSFO-KBOS

Flight info

Callsign UAL1442
Flight time 5h 2m
Altitude 35000
Route TRUKN2 SYRAH Q128 JSICA MLF/N0478F370 J28 GCK ICT SGF TINGS RYANS ZIEBR HVQ SFK PONCT JFUND2
Aircraft B77W/H-SDE1E2E3FGHIJ2J3J4J5M1RWXY/LB1D1

Departure

Time 2026-05-05 06:10
Airport San Francisco International Airport (KSFO)

Arrival

Time 2026-05-05 11:13
Airport Boston Logan International Airport (KBOS)
Time Latitude Longitude Altitude Speed Heading
2026-05-05 05:25 37.62131 -122.38929 27 ft 0 kts 208°
2026-05-05 05:55 37.62140 -122.38922 27 ft 4 kts 207°
2026-05-05 05:55 37.62165 -122.38906 25 ft 4 kts 207°
2026-05-05 05:55 37.62189 -122.38890 26 ft 4 kts 208°
2026-05-05 05:55 37.62212 -122.38876 25 ft 4 kts 193°
2026-05-05 05:56 37.62237 -122.38875 26 ft 4 kts 154°
2026-05-05 05:56 37.62256 -122.38896 27 ft 3 kts 118°
2026-05-05 05:56 37.62257 -122.38900 27 ft 0 kts 117°
2026-05-05 06:03 37.62250 -122.38881 27 ft 10 kts 117°
2026-05-05 06:03 37.62203 -122.38768 27 ft 15 kts 118°
2026-05-05 06:03 37.62154 -122.38649 27 ft 15 kts 118°
2026-05-05 06:04 37.62104 -122.38531 27 ft 15 kts 118°
2026-05-05 06:04 37.62054 -122.38413 27 ft 15 kts 117°
2026-05-05 06:04 37.61998 -122.38280 27 ft 21 kts 117°
2026-05-05 06:04 37.61927 -122.38109 27 ft 23 kts 117°
2026-05-05 06:05 37.61855 -122.37936 27 ft 22 kts 116°
2026-05-05 06:05 37.61795 -122.37759 27 ft 22 kts 111°
2026-05-05 06:05 37.61742 -122.37581 27 ft 22 kts 111°
2026-05-05 06:05 37.61677 -122.37408 27 ft 22 kts 120°
2026-05-05 06:06 37.61605 -122.37239 27 ft 22 kts 117°
2026-05-05 06:06 37.61535 -122.37070 27 ft 22 kts 117°
2026-05-05 06:06 37.61457 -122.36906 27 ft 22 kts 130°
2026-05-05 06:06 37.61357 -122.36763 27 ft 22 kts 118°
2026-05-05 06:07 37.61285 -122.36592 27 ft 22 kts 117°
2026-05-05 06:07 37.61214 -122.36420 27 ft 22 kts 117°
2026-05-05 06:07 37.61142 -122.36248 27 ft 22 kts 117°
2026-05-05 06:07 37.61077 -122.36093 27 ft 19 kts 117°
2026-05-05 06:08 37.61075 -122.35939 27 ft 19 kts 45°
2026-05-05 06:08 37.61188 -122.35847 27 ft 20 kts 27°
2026-05-05 06:08 37.61310 -122.35766 27 ft 15 kts 28°
2026-05-05 06:08 37.61370 -122.35757 27 ft 6 kts 315°
2026-05-05 06:09 37.61391 -122.35808 27 ft 3 kts 297°
2026-05-05 06:09 37.61417 -122.35873 27 ft 23 kts 297°
2026-05-05 06:10 37.61619 -122.36352 27 ft 109 kts 298°
2026-05-05 06:10 37.62108 -122.37517 129 ft 179 kts 298°
2026-05-05 06:10 37.62692 -122.38896 1180 ft 179 kts 296°
2026-05-05 06:10 37.63233 -122.40294 2247 ft 180 kts 296°
2026-05-05 06:11 37.63834 -122.41798 2543 ft 204 kts 296°
2026-05-05 06:11 37.64656 -122.43286 2940 ft 216 kts 322°
2026-05-05 06:11 37.66090 -122.43785 3624 ft 222 kts
2026-05-05 06:11 37.67274 -122.43200 4146 ft 228 kts 34°
2026-05-05 06:12 37.68289 -122.41668 4784 ft 230 kts 66°
2026-05-05 06:12 37.68840 -122.39712 5207 ft 246 kts 73°
2026-05-05 06:12 37.69359 -122.37565 5714 ft 260 kts 73°
2026-05-05 06:12 37.69879 -122.35348 6465 ft 267 kts 73°
2026-05-05 06:13 37.70409 -122.33080 7237 ft 269 kts 73°
2026-05-05 06:13 37.70942 -122.30802 8060 ft 273 kts 72°
2026-05-05 06:13 37.71490 -122.28473 8790 ft 280 kts 72°
2026-05-05 06:13 37.72051 -122.26097 9625 ft 284 kts 72°
2026-05-05 06:14 37.72612 -122.23730 10441 ft 287 kts 72°
2026-05-05 06:14 37.73204 -122.21239 10832 ft 309 kts 72°
2026-05-05 06:14 37.73852 -122.18524 11059 ft 336 kts 72°
2026-05-05 06:14 37.74550 -122.15600 11462 ft 355 kts 72°
2026-05-05 06:15 37.75269 -122.12571 12303 ft 362 kts 71°
2026-05-05 06:15 37.75995 -122.09517 13374 ft 363 kts 71°
2026-05-05 06:15 37.76719 -122.06462 14435 ft 363 kts 71°
2026-05-05 06:15 37.77446 -122.03388 15341 ft 366 kts 70°
2026-05-05 06:16 37.78182 -122.00281 16211 ft 370 kts 70°
2026-05-05 06:16 37.78923 -121.97151 17123 ft 373 kts 70°
2026-05-05 06:16 37.79667 -121.94007 18078 ft 375 kts 70°
2026-05-05 06:16 37.80416 -121.90838 18890 ft 378 kts 70°
2026-05-05 06:17 37.81173 -121.87635 19646 ft 382 kts 70°
2026-05-05 06:17 37.81937 -121.84395 20386 ft 387 kts 71°
2026-05-05 06:17 37.82699 -121.81153 21090 ft 391 kts 71°
2026-05-05 06:17 37.83479 -121.77831 21810 ft 396 kts 71°
2026-05-05 06:18 37.84268 -121.74467 22558 ft 400 kts 71°
2026-05-05 06:18 37.85061 -121.71079 23333 ft 403 kts 72°
2026-05-05 06:18 37.85860 -121.67662 23978 ft 407 kts 72°
2026-05-05 06:18 37.86665 -121.64215 24588 ft 410 kts 71°
2026-05-05 06:19 37.87475 -121.60736 25141 ft 414 kts 71°
2026-05-05 06:19 37.88292 -121.57228 25723 ft 417 kts 71°
2026-05-05 06:19 37.89112 -121.53703 26334 ft 419 kts 71°
2026-05-05 06:19 37.89935 -121.50155 26920 ft 421 kts 72°
2026-05-05 06:20 37.90762 -121.46588 27477 ft 424 kts 72°
2026-05-05 06:20 37.91595 -121.42991 28002 ft 427 kts 72°
2026-05-05 06:20 37.92431 -121.39373 28534 ft 429 kts 72°
2026-05-05 06:20 37.93272 -121.35725 29028 ft 432 kts 72°
2026-05-05 06:21 37.94114 -121.32071 29508 ft 434 kts 72°
2026-05-05 06:21 37.94962 -121.28382 29957 ft 437 kts 72°
2026-05-05 06:21 37.95803 -121.24721 30362 ft 438 kts 72°
2026-05-05 06:21 37.96653 -121.21007 30788 ft 438 kts 71°
2026-05-05 06:22 37.97502 -121.17301 31260 ft 437 kts 71°
2026-05-05 06:22 37.98345 -121.13615 31801 ft 434 kts 71°
2026-05-05 06:22 37.99156 -121.09930 32300 ft 433 kts 73°
2026-05-05 06:22 37.99784 -121.06198 32746 ft 433 kts 76°
2026-05-05 06:23 38.00363 -121.02448 33174 ft 432 kts 76°
2026-05-05 06:23 38.00916 -120.98814 33642 ft 431 kts 76°
2026-05-05 06:23 38.01483 -120.95085 34072 ft 430 kts 76°
2026-05-05 06:23 38.02051 -120.91353 34309 ft 432 kts 76°
2026-05-05 06:24 38.02626 -120.87597 34500 ft 435 kts 76°
2026-05-05 06:24 38.03197 -120.83869 34743 ft 437 kts 76°
2026-05-05 06:24 38.03779 -120.80076 34946 ft 440 kts 76°
2026-05-05 06:24 38.04367 -120.76243 34986 ft 444 kts 76°
2026-05-05 06:25 38.05537 -120.68573 35037 ft 440 kts 76°
2026-05-05 06:25 38.06689 -120.60987 35046 ft 437 kts 76°
2026-05-05 06:26 38.07834 -120.53424 35043 ft 436 kts 77°
2026-05-05 06:26 38.08973 -120.45862 35043 ft 436 kts 77°
2026-05-05 06:27 38.10678 -120.34492 35030 ft 438 kts 77°
2026-05-05 06:28 38.11804 -120.26933 35012 ft 438 kts 77°
2026-05-05 06:28 38.12933 -120.19305 35010 ft 439 kts 77°
2026-05-05 06:29 38.14061 -120.11661 35009 ft 440 kts 77°
2026-05-05 06:29 38.15185 -120.04006 34997 ft 441 kts 77°
2026-05-05 06:30 38.16290 -119.96447 35000 ft 442 kts 77°
2026-05-05 06:30 38.17409 -119.88758 34981 ft 443 kts 77°
2026-05-05 06:31 38.18525 -119.81047 34972 ft 444 kts 77°
2026-05-05 06:31 38.19633 -119.73356 34974 ft 446 kts 77°
2026-05-05 06:32 38.20749 -119.65570 34952 ft 448 kts 78°
2026-05-05 06:32 38.21862 -119.57768 34933 ft 449 kts 78°
2026-05-05 06:33 38.22973 -119.49944 34924 ft 450 kts 78°
2026-05-05 06:33 38.24080 -119.42096 34911 ft 451 kts 78°
2026-05-05 06:34 38.25185 -119.34234 34894 ft 451 kts 78°
2026-05-05 06:34 38.26285 -119.26369 34883 ft 452 kts 78°
2026-05-05 06:35 38.27375 -119.18537 34892 ft 452 kts 78°
2026-05-05 06:35 38.28465 -119.10661 34880 ft 452 kts 78°
2026-05-05 06:36 38.29552 -119.02768 34883 ft 453 kts 78°
2026-05-05 06:36 38.30621 -118.94968 34882 ft 453 kts 78°
2026-05-05 06:37 38.31702 -118.87032 34889 ft 455 kts 78°
2026-05-05 06:37 38.32598 -118.80425 34905 ft 456 kts 78°
2026-05-05 06:38 38.33849 -118.71157 34902 ft 457 kts 78°
2026-05-05 06:38 38.34747 -118.64458 34896 ft 458 kts 79°
2026-05-05 06:39 38.35811 -118.56499 34925 ft 459 kts 79°
2026-05-05 06:39 38.36876 -118.48477 34912 ft 460 kts 79°
2026-05-05 06:40 38.37938 -118.40440 34911 ft 460 kts 79°
2026-05-05 06:40 38.38996 -118.32387 34883 ft 461 kts 79°
2026-05-05 06:41 38.40046 -118.24352 34887 ft 463 kts 79°
2026-05-05 06:41 38.41102 -118.16222 34881 ft 465 kts 79°
2026-05-05 06:42 38.42158 -118.08053 34879 ft 467 kts 79°
2026-05-05 06:42 38.43206 -117.99895 34878 ft 469 kts 80°
2026-05-05 06:43 38.44255 -117.91683 35171 ft 474 kts 80°
2026-05-05 06:43 38.44783 -117.87531 35479 ft 474 kts 81°
2026-05-05 06:43 38.45309 -117.83388 35786 ft 473 kts 81°
2026-05-05 06:43 38.45833 -117.79241 36082 ft 473 kts 81°
2026-05-05 06:44 38.46358 -117.75078 36229 ft 477 kts 81°
2026-05-05 06:44 38.46876 -117.70952 36479 ft 478 kts 82°
2026-05-05 06:44 38.47402 -117.66757 36639 ft 480 kts 82°
2026-05-05 06:44 38.47929 -117.62536 36783 ft 482 kts 82°
2026-05-05 06:45 38.48457 -117.58293 36832 ft 485 kts 82°
2026-05-05 06:45 38.49512 -117.49795 36869 ft 484 kts 82°
2026-05-05 06:46 38.50555 -117.41337 36870 ft 481 kts 82°
2026-05-05 06:46 38.51590 -117.32891 36876 ft 481 kts 82°
2026-05-05 06:47 38.52118 -117.24397 36869 ft 480 kts 92°
2026-05-05 06:47 38.51917 -117.15859 36862 ft 481 kts 94°
2026-05-05 06:48 38.51683 -117.07349 36871 ft 484 kts 93°
2026-05-05 06:48 38.51474 -116.98847 36875 ft 486 kts 94°
2026-05-05 06:49 38.51278 -116.90185 36888 ft 489 kts 93°
2026-05-05 06:49 38.51080 -116.81476 36865 ft 492 kts 94°
2026-05-05 06:50 38.50874 -116.72719 36873 ft 494 kts 94°
2026-05-05 06:50 38.50659 -116.63943 36875 ft 495 kts 94°
2026-05-05 06:51 38.50437 -116.55198 36845 ft 496 kts 95°
2026-05-05 06:51 38.50207 -116.46403 36851 ft 496 kts 95°
2026-05-05 06:52 38.49971 -116.37600 36846 ft 496 kts 95°
2026-05-05 06:52 38.49729 -116.28791 36843 ft 496 kts 95°
2026-05-05 06:53 38.49480 -116.19994 36824 ft 496 kts 95°
2026-05-05 06:53 38.49224 -116.11177 36828 ft 497 kts 95°
2026-05-05 06:54 38.48960 -116.02359 36826 ft 498 kts 95°
2026-05-05 06:54 38.48695 -115.93705 36800 ft 498 kts 96°
2026-05-05 06:55 38.48418 -115.84858 36807 ft 499 kts 96°
2026-05-05 06:55 38.48135 -115.76000 36808 ft 500 kts 96°
2026-05-05 06:56 38.47843 -115.67124 36804 ft 500 kts 96°
2026-05-05 06:56 38.47544 -115.58237 36791 ft 501 kts 96°
2026-05-05 06:57 38.47239 -115.49350 36801 ft 501 kts 96°
2026-05-05 06:57 38.46928 -115.40459 36792 ft 502 kts 97°
2026-05-05 06:58 38.46609 -115.31556 36761 ft 503 kts 97°
2026-05-05 06:58 38.46282 -115.22645 36776 ft 502 kts 97°
2026-05-05 06:59 38.45951 -115.13796 36790 ft 503 kts 97°
2026-05-05 06:59 38.45611 -115.04884 36787 ft 503 kts 97°
2026-05-05 07:00 38.45269 -114.96065 36778 ft 503 kts 97°
2026-05-05 07:00 38.44916 -114.87155 36786 ft 503 kts 97°
2026-05-05 07:01 38.44555 -114.78242 36797 ft 503 kts 97°
2026-05-05 07:01 38.44188 -114.69320 36798 ft 503 kts 97°
2026-05-05 07:02 38.43814 -114.60392 36799 ft 504 kts 98°
2026-05-05 07:02 38.43431 -114.51467 36806 ft 504 kts 98°
2026-05-05 07:03 38.43043 -114.42527 36819 ft 505 kts 98°
2026-05-05 07:03 38.42647 -114.33577 36811 ft 506 kts 98°
2026-05-05 07:04 38.42247 -114.24676 36824 ft 506 kts 98°
2026-05-05 07:04 38.41837 -114.15715 36830 ft 506 kts 98°
2026-05-05 07:05 38.41420 -114.06740 36800 ft 507 kts 98°
2026-05-05 07:05 38.41001 -113.97877 36808 ft 507 kts 98°
2026-05-05 07:06 38.40569 -113.88891 36813 ft 508 kts 98°
2026-05-05 07:06 38.40133 -113.79954 36804 ft 508 kts 99°
2026-05-05 07:07 38.39687 -113.70955 36791 ft 509 kts 99°
2026-05-05 07:07 38.39232 -113.61941 36807 ft 510 kts 99°
2026-05-05 07:08 38.38771 -113.52901 36813 ft 511 kts 99°
2026-05-05 07:08 38.38299 -113.43838 36802 ft 512 kts 99°
2026-05-05 07:09 38.37821 -113.34759 36839 ft 514 kts 99°
2026-05-05 07:09 38.37334 -113.25657 36877 ft 516 kts 99°
2026-05-05 07:10 38.36843 -113.16587 36923 ft 517 kts 99°
2026-05-05 07:10 38.36342 -113.07439 36917 ft 518 kts 99°
2026-05-05 07:11 38.36016 -112.98346 36932 ft 523 kts 93°
2026-05-05 07:11 38.36324 -112.89036 36921 ft 526 kts 91°
2026-05-05 07:12 38.36694 -112.79728 36893 ft 526 kts 92°
2026-05-05 07:12 38.37026 -112.70410 36871 ft 527 kts 92°
2026-05-05 07:13 38.37321 -112.61129 36857 ft 527 kts 92°
2026-05-05 07:13 38.37604 -112.51771 36835 ft 529 kts 92°
2026-05-05 07:14 38.37882 -112.42400 36831 ft 530 kts 92°
2026-05-05 07:14 38.38155 -112.33012 36843 ft 531 kts 92°
2026-05-05 07:15 38.38420 -112.23588 36828 ft 531 kts 92°
2026-05-05 07:15 38.38677 -112.14223 36857 ft 532 kts 92°
2026-05-05 07:16 38.38929 -112.04773 36854 ft 534 kts 92°
2026-05-05 07:16 38.39174 -111.95435 36863 ft 532 kts 92°
2026-05-05 07:17 38.39409 -111.85980 36861 ft 534 kts 92°
2026-05-05 07:17 38.39638 -111.76510 36808 ft 535 kts 92°
2026-05-05 07:18 38.39858 -111.67085 36840 ft 536 kts 92°
2026-05-05 07:18 38.40075 -111.57552 36863 ft 539 kts 93°
2026-05-05 07:19 38.40285 -111.47957 36838 ft 543 kts 93°
2026-05-05 07:19 38.40490 -111.38320 36824 ft 543 kts 93°
2026-05-05 07:20 38.40686 -111.28679 36812 ft 543 kts 93°
2026-05-05 07:20 38.40869 -111.19057 36794 ft 543 kts 93°
2026-05-05 07:21 38.41047 -111.09492 36780 ft 543 kts 93°
2026-05-05 07:21 38.41219 -110.99903 36824 ft 543 kts 93°
2026-05-05 07:22 38.41380 -110.90373 36856 ft 543 kts 93°
2026-05-05 07:22 38.41536 -110.80716 36884 ft 544 kts 93°
2026-05-05 07:23 38.41685 -110.71064 36895 ft 545 kts 93°
2026-05-05 07:23 38.41877 -110.61382 36757 ft 547 kts 92°
2026-05-05 07:24 38.42126 -110.51677 36749 ft 548 kts 92°
2026-05-05 07:24 38.42369 -110.41945 36721 ft 549 kts 92°
2026-05-05 07:25 38.42590 -110.32255 36733 ft 551 kts 92°
2026-05-05 07:25 38.42798 -110.22467 36728 ft 552 kts 92°
2026-05-05 07:26 38.42968 -110.14251 36735 ft 553 kts 92°
2026-05-05 07:26 38.43162 -110.04478 36709 ft 554 kts 93°
2026-05-05 07:27 38.43349 -109.94785 36735 ft 554 kts 93°
2026-05-05 07:27 38.43530 -109.84956 36749 ft 554 kts 93°
2026-05-05 07:28 38.43700 -109.75109 36749 ft 555 kts 93°
2026-05-05 07:28 38.43865 -109.65239 36743 ft 557 kts 93°
2026-05-05 07:29 38.44022 -109.55335 36742 ft 559 kts 93°
2026-05-05 07:29 38.44171 -109.45408 36766 ft 560 kts 93°
2026-05-05 07:30 38.44310 -109.35525 36755 ft 562 kts 93°
2026-05-05 07:30 38.44508 -109.20527 36728 ft 564 kts 93°
2026-05-05 07:31 38.44627 -109.10557 36758 ft 561 kts 93°
2026-05-05 07:31 38.44738 -109.00606 36767 ft 561 kts 93°
2026-05-05 07:32 38.44842 -108.90760 36789 ft 561 kts 93°
2026-05-05 07:32 38.44934 -108.80837 36763 ft 565 kts 94°
2026-05-05 07:33 38.45019 -108.70797 36776 ft 567 kts 94°
2026-05-05 07:33 38.45100 -108.60716 36791 ft 569 kts 94°
2026-05-05 07:34 38.45169 -108.50593 36775 ft 571 kts 94°
2026-05-05 07:34 38.45228 -108.40437 36778 ft 571 kts 94°
2026-05-05 07:35 38.45281 -108.30288 36770 ft 571 kts 94°
2026-05-05 07:35 38.45327 -108.20209 36839 ft 571 kts 94°
2026-05-05 07:36 38.45359 -108.10060 36898 ft 571 kts 94°
2026-05-05 07:36 38.45384 -107.99941 36945 ft 571 kts 95°
2026-05-05 07:37 38.45402 -107.89916 36950 ft 571 kts 95°
2026-05-05 07:37 38.45411 -107.79781 36797 ft 571 kts 95°
2026-05-05 07:38 38.45411 -107.69654 36796 ft 571 kts 95°
2026-05-05 07:38 38.45403 -107.59524 36814 ft 571 kts 95°
2026-05-05 07:39 38.45385 -107.49459 36860 ft 570 kts 95°
2026-05-05 07:39 38.45358 -107.39318 36856 ft 573 kts 95°
2026-05-05 07:40 38.45322 -107.29114 36896 ft 576 kts 95°
2026-05-05 07:40 38.45278 -107.18880 36944 ft 578 kts 95°
2026-05-05 07:41 38.45228 -107.08611 36986 ft 579 kts 95°
2026-05-05 07:41 38.45011 -106.98464 36999 ft 577 kts 98°
2026-05-05 07:42 38.44478 -106.88245 37017 ft 577 kts 99°
2026-05-05 07:42 38.44192 -106.83193 36882 ft 578 kts 99°
2026-05-05 07:42 38.43904 -106.78008 36875 ft 578 kts 99°
2026-05-05 07:43 38.43364 -106.67844 36869 ft 578 kts 99°
2026-05-05 07:43 38.42832 -106.57602 36862 ft 578 kts 99°
2026-05-05 07:44 38.42289 -106.47369 36849 ft 578 kts 99°
2026-05-05 07:44 38.41727 -106.37136 36875 ft 577 kts 99°
2026-05-05 07:45 38.41166 -106.26898 36913 ft 579 kts 99°
2026-05-05 07:45 38.40598 -106.16633 36920 ft 581 kts 99°
2026-05-05 07:46 38.40012 -106.06347 36942 ft 582 kts 99°
2026-05-05 07:46 38.39428 -105.96246 36960 ft 584 kts 99°
2026-05-05 07:47 38.39120 -105.91071 36777 ft 585 kts 99°
2026-05-05 07:47 38.38812 -105.85968 36781 ft 583 kts 99°
2026-05-05 07:47 38.38179 -105.75661 36817 ft 583 kts 99°
2026-05-05 07:48 38.37535 -105.65335 36821 ft 585 kts 99°
2026-05-05 07:48 38.36889 -105.54974 36817 ft 588 kts 99°
2026-05-05 07:49 38.36230 -105.44583 36827 ft 589 kts 99°
2026-05-05 07:49 38.35561 -105.34161 36838 ft 590 kts 99°
2026-05-05 07:50 38.34906 -105.23740 36782 ft 589 kts 98°
2026-05-05 07:50 38.34257 -105.13365 36831 ft 586 kts 98°
2026-05-05 07:51 38.33582 -105.03012 36840 ft 586 kts 99°
2026-05-05 07:51 38.32890 -104.92809 36834 ft 586 kts 99°
2026-05-05 07:52 38.32185 -104.82518 36850 ft 587 kts 99°
2026-05-05 07:52 38.31465 -104.72125 36897 ft 588 kts 99°
2026-05-05 07:53 38.30741 -104.61752 36936 ft 588 kts 99°
2026-05-05 07:53 38.30006 -104.51365 36934 ft 589 kts 99°
2026-05-05 07:54 38.29263 -104.41033 36939 ft 589 kts 99°
2026-05-05 07:54 38.28403 -104.30674 36898 ft 588 kts 101°
2026-05-05 07:55 38.27475 -104.20334 36860 ft 588 kts 101°
2026-05-05 07:55 38.26547 -104.09989 36769 ft 589 kts 100°
2026-05-05 07:56 38.25637 -103.99722 36775 ft 589 kts 100°
2026-05-05 07:56 38.24719 -103.89387 36764 ft 590 kts 100°
2026-05-05 07:57 38.23785 -103.79020 36801 ft 591 kts 100°
2026-05-05 07:57 38.22838 -103.68620 36834 ft 592 kts 100°
2026-05-05 07:58 38.21881 -103.58215 36857 ft 593 kts 100°
2026-05-05 07:58 38.20913 -103.47790 36847 ft 593 kts 100°
2026-05-05 07:59 38.19935 -103.37367 36853 ft 594 kts 100°
2026-05-05 07:59 38.18955 -103.27008 36825 ft 594 kts 100°
2026-05-05 08:00 38.17956 -103.16567 36788 ft 594 kts 100°
2026-05-05 08:00 38.16948 -103.06128 36785 ft 594 kts 100°
2026-05-05 08:01 38.15947 -102.95840 36801 ft 593 kts 101°
2026-05-05 08:01 38.14924 -102.85435 36847 ft 593 kts 101°
2026-05-05 08:02 38.13892 -102.75044 36880 ft 593 kts 101°
2026-05-05 08:02 38.12850 -102.64647 36881 ft 593 kts 101°
2026-05-05 08:03 38.11806 -102.54314 36863 ft 593 kts 101°
2026-05-05 08:03 38.10746 -102.43915 36828 ft 594 kts 101°
2026-05-05 08:04 38.09675 -102.33512 36778 ft 594 kts 101°
2026-05-05 08:04 38.08595 -102.23107 36749 ft 595 kts 101°
2026-05-05 08:05 38.07503 -102.12679 36746 ft 595 kts 101°
2026-05-05 08:05 38.06409 -102.02323 36740 ft 596 kts 101°
2026-05-05 08:06 38.05312 -101.92019 36739 ft 597 kts 101°
2026-05-05 08:06 38.04191 -101.81580 36720 ft 596 kts 101°
2026-05-05 08:07 38.03062 -101.71162 36733 ft 596 kts 101°
2026-05-05 08:07 38.01923 -101.60737 36730 ft 597 kts 101°
2026-05-05 08:08 38.00773 -101.50304 36736 ft 598 kts 101°
2026-05-05 08:08 37.99613 -101.39861 36736 ft 598 kts 101°
2026-05-05 08:09 37.98641 -101.31174 36733 ft 598 kts 101°
2026-05-05 08:09 37.97269 -101.19027 36729 ft 598 kts 101°
2026-05-05 08:10 37.96080 -101.08578 36752 ft 599 kts 101°
2026-05-05 08:10 37.94900 -100.98294 36777 ft 599 kts 101°
2026-05-05 08:11 37.93897 -100.89614 36790 ft 599 kts 101°
2026-05-05 08:11 37.92683 -100.79182 36805 ft 598 kts 101°
2026-05-05 08:12 37.91640 -100.68728 36803 ft 600 kts 95°
2026-05-05 08:12 37.91184 -100.58179 36799 ft 600 kts 94°
2026-05-05 08:13 37.90800 -100.47616 36777 ft 600 kts 94°
2026-05-05 08:13 37.90367 -100.37054 36744 ft 600 kts 94°
2026-05-05 08:14 37.89887 -100.26509 36747 ft 600 kts 94°
2026-05-05 08:14 37.89389 -100.15969 36769 ft 600 kts 94°
2026-05-05 08:15 37.88887 -100.05419 36777 ft 600 kts 94°
2026-05-05 08:15 37.88388 -99.95068 36782 ft 601 kts 94°
2026-05-05 08:16 37.87872 -99.84504 36779 ft 601 kts 94°
2026-05-05 08:16 37.87344 -99.73934 36760 ft 601 kts 94°
2026-05-05 08:17 37.86809 -99.63419 36733 ft 602 kts 94°
2026-05-05 08:17 37.86262 -99.52851 36717 ft 602 kts 94°
2026-05-05 08:18 37.85705 -99.42272 36719 ft 602 kts 94°
2026-05-05 08:18 37.85138 -99.31674 36710 ft 602 kts 94°
2026-05-05 08:19 37.84562 -99.21097 36711 ft 602 kts 94°
2026-05-05 08:19 37.83981 -99.10589 36725 ft 602 kts 94°
2026-05-05 08:20 37.83386 -99.00031 36735 ft 601 kts 94°
2026-05-05 08:20 37.82794 -98.89650 36759 ft 602 kts 94°
2026-05-05 08:21 37.82180 -98.79075 36765 ft 602 kts 94°
2026-05-05 08:21 37.81556 -98.68494 36783 ft 602 kts 94°
2026-05-05 08:22 37.80923 -98.57912 36757 ft 603 kts 94°
2026-05-05 08:22 37.80285 -98.47408 36727 ft 603 kts 94°
2026-05-05 08:23 37.79634 -98.36848 36682 ft 602 kts 94°
2026-05-05 08:23 37.78973 -98.26286 36676 ft 602 kts 94°
2026-05-05 08:24 37.78304 -98.15743 36678 ft 601 kts 94°
2026-05-05 08:24 37.77626 -98.05212 36678 ft 600 kts 94°
2026-05-05 08:25 37.76951 -97.94862 36677 ft 600 kts 94°
2026-05-05 08:25 37.76257 -97.84374 36691 ft 598 kts 94°
2026-05-05 08:26 37.75555 -97.73898 36690 ft 598 kts 94°
2026-05-05 08:26 37.74846 -97.63444 36681 ft 597 kts 94°
2026-05-05 08:27 37.74119 -97.53001 36690 ft 596 kts 94°
2026-05-05 08:27 37.73344 -97.42574 36750 ft 595 kts 95°
2026-05-05 08:28 37.72556 -97.32227 36710 ft 594 kts 95°
2026-05-05 08:28 37.71764 -97.21854 36765 ft 593 kts 95°
2026-05-05 08:29 37.70967 -97.11466 36769 ft 593 kts 95°
2026-05-05 08:30 37.69769 -96.96051 36774 ft 595 kts 95°
2026-05-05 08:30 37.68947 -96.85647 36791 ft 596 kts 95°
2026-05-05 08:31 37.68115 -96.75235 36793 ft 596 kts 95°
2026-05-05 08:31 37.67275 -96.64836 36765 ft 596 kts 95°
2026-05-05 08:32 37.66430 -96.54487 36716 ft 595 kts 95°
2026-05-05 08:32 37.65573 -96.44116 36725 ft 594 kts 95°
2026-05-05 08:33 37.64709 -96.33770 36718 ft 592 kts 95°
2026-05-05 08:33 37.63838 -96.23441 36722 ft 590 kts 95°
2026-05-05 08:34 37.62961 -96.13149 36728 ft 589 kts 95°
2026-05-05 08:34 37.62077 -96.02885 36731 ft 587 kts 95°
2026-05-05 08:35 37.61207 -95.92885 36715 ft 585 kts 95°
2026-05-05 08:35 37.60311 -95.82688 36708 ft 584 kts 95°
2026-05-05 08:36 37.59408 -95.72511 36711 ft 583 kts 95°
2026-05-05 08:36 37.58498 -95.62364 36768 ft 582 kts 96°
2026-05-05 08:37 37.57582 -95.52240 36780 ft 580 kts 95°
2026-05-05 08:37 37.56658 -95.42136 36767 ft 579 kts 95°
2026-05-05 08:38 37.55735 -95.32135 36809 ft 578 kts 96°
2026-05-05 08:38 37.54798 -95.22069 36753 ft 578 kts 96°
2026-05-05 08:39 37.53852 -95.12003 36726 ft 578 kts 96°
2026-05-05 08:39 37.52897 -95.01932 36732 ft 578 kts 96°
2026-05-05 08:40 37.51946 -94.92005 36758 ft 581 kts 96°
2026-05-05 08:40 37.50967 -94.81862 36765 ft 591 kts 96°
2026-05-05 08:41 37.49963 -94.71555 36746 ft 592 kts 96°
2026-05-05 08:41 37.48949 -94.61263 36711 ft 592 kts 96°
2026-05-05 08:42 37.47927 -94.50969 36718 ft 591 kts 96°
2026-05-05 08:42 37.46899 -94.40711 36719 ft 590 kts 96°
2026-05-05 08:43 37.45870 -94.30531 36729 ft 589 kts 96°
2026-05-05 08:43 37.44827 -94.20298 36722 ft 588 kts 96°
2026-05-05 08:44 37.43774 -94.10065 36721 ft 589 kts 96°
2026-05-05 08:44 37.42717 -93.99870 36741 ft 590 kts 96°
2026-05-05 08:45 37.41652 -93.89687 36735 ft 591 kts 96°
2026-05-05 08:45 37.40574 -93.79475 36752 ft 584 kts 96°
2026-05-05 08:46 37.39500 -93.69394 36728 ft 581 kts 96°
2026-05-05 08:46 37.38421 -93.59331 36726 ft 581 kts 96°
2026-05-05 08:47 37.37332 -93.49251 36730 ft 581 kts 96°
2026-05-05 08:47 37.36239 -93.39220 36737 ft 582 kts 96°
2026-05-05 08:48 37.35515 -93.29105 36734 ft 579 kts 86°
2026-05-05 08:48 37.35635 -93.18989 36752 ft 578 kts 85°
2026-05-05 08:49 37.35815 -93.08873 36740 ft 579 kts 85°
2026-05-05 08:49 37.35936 -92.98892 36745 ft 581 kts 85°
2026-05-05 08:50 37.36015 -92.88719 36765 ft 582 kts 85°
2026-05-05 08:50 37.36075 -92.78582 36767 ft 584 kts 85°
2026-05-05 08:51 37.36131 -92.68306 36770 ft 585 kts 85°
2026-05-05 08:51 37.36181 -92.58061 36777 ft 587 kts 84°
2026-05-05 08:52 37.36227 -92.47800 36771 ft 588 kts 84°
2026-05-05 08:52 37.36261 -92.37578 36762 ft 588 kts 84°
2026-05-05 08:53 37.36285 -92.27289 36802 ft 589 kts 84°
2026-05-05 08:53 37.36302 -92.16946 36770 ft 591 kts 84°
2026-05-05 08:54 37.36309 -92.08346 36776 ft 592 kts 84°
2026-05-05 08:54 37.36309 -91.98114 36779 ft 592 kts 84°
2026-05-05 08:55 37.36299 -91.87760 36797 ft 593 kts 83°
2026-05-05 08:55 37.36281 -91.77374 36785 ft 594 kts 83°
2026-05-05 08:56 37.36254 -91.67054 36780 ft 594 kts 84°
2026-05-05 08:56 37.36218 -91.56646 36787 ft 594 kts 84°
2026-05-05 08:57 37.36171 -91.46252 36799 ft 594 kts 83°
2026-05-05 08:57 37.36114 -91.35930 36799 ft 593 kts 84°
2026-05-05 08:58 37.36052 -91.25561 36799 ft 592 kts 84°
2026-05-05 08:58 37.35982 -91.15241 36808 ft 592 kts 84°
2026-05-05 08:59 37.35901 -91.04881 36812 ft 592 kts 84°
2026-05-05 08:59 37.35811 -90.94686 36813 ft 591 kts 84°
2026-05-05 09:00 37.35711 -90.84365 36813 ft 590 kts 84°
2026-05-05 09:00 37.35603 -90.74064 36859 ft 589 kts 84°
2026-05-05 09:01 37.35489 -90.63772 36825 ft 588 kts 84°
2026-05-05 09:01 37.35363 -90.53579 36827 ft 586 kts 84°
2026-05-05 09:02 37.35230 -90.43340 36831 ft 585 kts 84°
2026-05-05 09:02 37.35088 -90.33123 36842 ft 584 kts 84°
2026-05-05 09:03 37.34937 -90.22923 36816 ft 583 kts 84°
2026-05-05 09:03 37.34778 -90.12749 36839 ft 581 kts 84°
2026-05-05 09:04 37.34613 -90.02661 36822 ft 581 kts 84°
2026-05-05 09:04 37.34440 -89.92647 36828 ft 581 kts 84°
2026-05-05 09:05 37.34256 -89.82504 36825 ft 580 kts 84°
2026-05-05 09:05 37.34063 -89.72361 36834 ft 579 kts 84°
2026-05-05 09:06 37.33862 -89.62243 36825 ft 581 kts 84°
2026-05-05 09:06 37.33656 -89.51986 36843 ft 592 kts 84°
2026-05-05 09:07 37.33434 -89.41567 36839 ft 600 kts 85°
2026-05-05 09:07 37.33195 -89.31022 36846 ft 606 kts 85°
2026-05-05 09:08 37.32943 -89.20487 36864 ft 607 kts 85°
2026-05-05 09:08 37.32681 -89.09820 36834 ft 606 kts 85°
2026-05-05 09:09 37.32417 -88.99401 36830 ft 603 kts 85°
2026-05-05 09:09 37.32145 -88.88964 36830 ft 601 kts 85°
2026-05-05 09:10 37.31864 -88.78488 36846 ft 598 kts 85°
2026-05-05 09:10 37.31574 -88.68035 36844 ft 597 kts 85°
2026-05-05 09:11 37.31276 -88.57624 36850 ft 596 kts 85°
2026-05-05 09:11 37.30967 -88.47202 36881 ft 596 kts 85°
2026-05-05 09:12 37.30651 -88.36800 36856 ft 594 kts 86°
2026-05-05 09:12 37.30337 -88.26504 36853 ft 592 kts 85°
2026-05-05 09:13 37.30550 -88.16253 36859 ft 584 kts 79°
2026-05-05 09:13 37.31006 -88.06084 36891 ft 582 kts 80°
2026-05-05 09:14 37.31439 -87.96063 36862 ft 580 kts 80°
2026-05-05 09:14 37.31825 -87.85954 36867 ft 578 kts 81°
2026-05-05 09:15 37.32184 -87.75875 36856 ft 577 kts 81°
2026-05-05 09:15 37.32534 -87.65800 36877 ft 576 kts 81°
2026-05-05 09:16 37.32879 -87.55755 36851 ft 574 kts 81°
2026-05-05 09:16 37.33215 -87.45753 36862 ft 572 kts 81°
2026-05-05 09:17 37.33543 -87.35782 36866 ft 571 kts 81°
2026-05-05 09:17 37.33859 -87.25896 36874 ft 570 kts 82°
2026-05-05 09:18 37.34168 -87.15958 36872 ft 568 kts 82°
2026-05-05 09:18 37.34468 -87.06034 36875 ft 567 kts 82°
2026-05-05 09:19 37.34756 -86.96244 36880 ft 567 kts 82°
2026-05-05 09:19 37.35039 -86.86340 36893 ft 566 kts 82°
2026-05-05 09:20 37.35313 -86.76465 36878 ft 565 kts 82°
2026-05-05 09:20 37.35576 -86.66598 36886 ft 564 kts 82°
2026-05-05 09:21 37.35833 -86.56736 36888 ft 563 kts 82°
2026-05-05 09:21 37.36082 -86.46971 36894 ft 562 kts 82°
2026-05-05 09:22 37.36323 -86.37132 36883 ft 562 kts 82°
2026-05-05 09:22 37.36554 -86.27318 36889 ft 561 kts 83°
2026-05-05 09:23 37.36777 -86.17510 36889 ft 561 kts 83°
2026-05-05 09:23 37.36992 -86.07714 36885 ft 559 kts 83°
2026-05-05 09:24 37.37195 -85.98106 36882 ft 558 kts 83°
2026-05-05 09:24 37.37394 -85.88356 36887 ft 557 kts 83°
2026-05-05 09:25 37.37583 -85.78616 36890 ft 557 kts 83°
2026-05-05 09:25 37.37764 -85.68881 36891 ft 557 kts 83°
2026-05-05 09:26 37.37937 -85.59200 36892 ft 557 kts 83°
2026-05-05 09:26 37.38104 -85.49455 36894 ft 557 kts 83°
2026-05-05 09:27 37.38262 -85.39704 36921 ft 557 kts 83°
2026-05-05 09:27 37.38410 -85.29984 37009 ft 556 kts 83°
2026-05-05 09:28 37.38552 -85.20271 36975 ft 555 kts 83°
2026-05-05 09:28 37.38685 -85.10583 36957 ft 553 kts 83°
2026-05-05 09:29 37.38891 -85.00938 36952 ft 549 kts 80°
2026-05-05 09:29 37.39862 -84.91641 36940 ft 542 kts 75°
2026-05-05 09:30 37.41032 -84.82266 36930 ft 541 kts 75°
2026-05-05 09:30 37.42159 -84.72966 36940 ft 541 kts 75°
2026-05-05 09:31 37.43247 -84.63602 36953 ft 541 kts 76°
2026-05-05 09:31 37.44312 -84.54238 36934 ft 540 kts 76°
2026-05-05 09:32 37.45369 -84.44891 36929 ft 539 kts 76°
2026-05-05 09:32 37.46424 -84.35533 36939 ft 539 kts 76°
2026-05-05 09:33 37.47470 -84.26181 36938 ft 539 kts 77°
2026-05-05 09:33 37.48499 -84.16912 36931 ft 537 kts 77°
2026-05-05 09:34 37.49526 -84.07599 36929 ft 536 kts 77°
2026-05-05 09:34 37.50529 -83.98451 36927 ft 536 kts 77°
2026-05-05 09:35 37.51540 -83.89151 36932 ft 536 kts 78°
2026-05-05 09:35 37.53039 -83.75225 36931 ft 534 kts 78°
2026-05-05 09:36 37.54026 -83.65962 36924 ft 532 kts 78°
2026-05-05 09:36 37.55006 -83.56711 36931 ft 532 kts 78°
2026-05-05 09:37 37.55971 -83.47526 36931 ft 531 kts 79°
2026-05-05 09:37 37.56931 -83.38304 36967 ft 530 kts 79°
2026-05-05 09:38 37.57883 -83.29104 36951 ft 529 kts 79°
2026-05-05 09:38 37.58827 -83.19905 36967 ft 528 kts 79°
2026-05-05 09:39 37.59603 -83.12285 36965 ft 528 kts 79°
2026-05-05 09:39 37.60533 -83.03101 36943 ft 528 kts 79°
2026-05-05 09:40 37.61439 -82.94065 36939 ft 528 kts 79°
2026-05-05 09:40 37.62355 -82.84886 36942 ft 527 kts 79°
2026-05-05 09:41 37.64172 -82.76066 36982 ft 515 kts 60°
2026-05-05 09:41 37.68004 -82.68586 36960 ft 501 kts 42°
2026-05-05 09:42 37.72799 -82.62223 37003 ft 501 kts 41°
2026-05-05 09:42 37.77628 -82.55850 36974 ft 503 kts 41°
2026-05-05 09:43 37.82426 -82.49385 36917 ft 504 kts 42°
2026-05-05 09:43 37.87169 -82.42921 36915 ft 505 kts 42°
2026-05-05 09:44 37.91945 -82.36390 36924 ft 506 kts 42°
2026-05-05 09:44 37.96737 -82.29832 36916 ft 506 kts 42°
2026-05-05 09:45 38.01526 -82.23268 36910 ft 507 kts 42°
2026-05-05 09:45 38.06309 -82.16701 36906 ft 506 kts 43°
2026-05-05 09:46 38.11081 -82.10132 36916 ft 506 kts 43°
2026-05-05 09:46 38.15850 -82.03555 36898 ft 506 kts 43°
2026-05-05 09:47 38.20523 -81.97096 36906 ft 505 kts 43°
2026-05-05 09:47 38.25252 -81.90548 36911 ft 505 kts 43°
2026-05-05 09:48 38.30003 -81.83953 36927 ft 505 kts 43°
2026-05-05 09:48 38.34755 -81.77357 36932 ft 505 kts 42°
2026-05-05 09:49 38.39744 -81.71098 36940 ft 503 kts 39°
2026-05-05 09:49 38.44835 -81.64998 36945 ft 502 kts 38°
2026-05-05 09:50 38.49936 -81.58868 36935 ft 503 kts 39°
2026-05-05 09:50 38.55015 -81.52702 36899 ft 504 kts 39°
2026-05-05 09:51 38.60094 -81.46499 36915 ft 505 kts 39°
2026-05-05 09:51 38.65172 -81.40280 36896 ft 505 kts 39°
2026-05-05 09:52 38.70249 -81.34052 36900 ft 505 kts 39°
2026-05-05 09:52 38.75325 -81.27814 36904 ft 505 kts 39°
2026-05-05 09:53 38.80396 -81.21572 36898 ft 506 kts 39°
2026-05-05 09:53 38.85440 -81.15349 36900 ft 507 kts 39°
2026-05-05 09:54 38.90516 -81.09073 36886 ft 507 kts 39°
2026-05-05 09:54 38.95596 -81.02778 36889 ft 507 kts 40°
2026-05-05 09:55 39.00613 -80.96551 36897 ft 507 kts 40°
2026-05-05 09:55 39.05687 -80.90238 36894 ft 508 kts 40°
2026-05-05 09:56 39.10773 -80.83897 36895 ft 509 kts 40°
2026-05-05 09:56 39.15861 -80.77541 36886 ft 510 kts 40°
2026-05-05 09:57 39.20955 -80.71162 36886 ft 511 kts 40°
2026-05-05 09:57 39.26062 -80.64755 36872 ft 513 kts 40°
2026-05-05 09:58 39.31179 -80.58319 36887 ft 513 kts 40°
2026-05-05 09:58 39.36289 -80.51881 36895 ft 514 kts 40°
2026-05-05 09:59 39.41372 -80.45461 36880 ft 514 kts 40°
2026-05-05 09:59 39.46493 -80.38980 36864 ft 515 kts 40°
2026-05-05 10:00 39.51619 -80.32478 36871 ft 515 kts 40°
2026-05-05 10:00 39.56742 -80.25966 36885 ft 516 kts 40°
2026-05-05 10:01 39.61858 -80.19450 36901 ft 516 kts 41°
2026-05-05 10:01 39.66977 -80.12912 36895 ft 516 kts 41°
2026-05-05 10:02 39.72061 -80.06407 36904 ft 516 kts 41°
2026-05-05 10:02 39.77131 -79.99907 36896 ft 515 kts 41°
2026-05-05 10:03 39.82161 -79.93442 36916 ft 515 kts 41°
2026-05-05 10:03 39.87264 -79.86870 36889 ft 516 kts 41°
2026-05-05 10:04 39.92365 -79.80286 36875 ft 516 kts 41°
2026-05-05 10:04 39.97464 -79.73690 36858 ft 516 kts 41°
2026-05-05 10:05 40.02518 -79.67136 36906 ft 516 kts 42°
2026-05-05 10:05 40.07599 -79.60535 36892 ft 516 kts 42°
2026-05-05 10:06 40.12688 -79.53907 36878 ft 516 kts 42°
2026-05-05 10:06 40.17766 -79.47278 36890 ft 516 kts 42°
2026-05-05 10:07 40.22848 -79.40630 36893 ft 516 kts 42°
2026-05-05 10:07 40.27929 -79.33968 36889 ft 516 kts 42°
2026-05-05 10:08 40.33006 -79.27296 36885 ft 516 kts 42°
2026-05-05 10:08 40.38076 -79.20619 36879 ft 516 kts 42°
2026-05-05 10:09 40.43105 -79.13982 36855 ft 516 kts 42°
2026-05-05 10:09 40.48161 -79.07293 36867 ft 516 kts 42°
2026-05-05 10:10 40.53223 -79.00579 36862 ft 516 kts 42°
2026-05-05 10:10 40.58165 -78.94012 36850 ft 517 kts 42°
2026-05-05 10:11 40.63222 -78.87276 36869 ft 517 kts 43°
2026-05-05 10:11 40.68279 -78.80523 36857 ft 518 kts 43°
2026-05-05 10:12 40.73337 -78.73755 36843 ft 518 kts 43°
2026-05-05 10:12 40.78393 -78.66975 36850 ft 518 kts 43°
2026-05-05 10:13 40.83435 -78.60195 36849 ft 518 kts 43°
2026-05-05 10:13 40.88482 -78.53395 36854 ft 517 kts 43°
2026-05-05 10:14 40.93488 -78.46633 36857 ft 517 kts 43°
2026-05-05 10:14 40.98523 -78.39818 36866 ft 517 kts 43°
2026-05-05 10:15 41.03544 -78.33006 36862 ft 517 kts 43°
2026-05-05 10:15 41.08573 -78.26166 36862 ft 518 kts 43°
2026-05-05 10:16 41.13571 -78.19352 36855 ft 519 kts 43°
2026-05-05 10:16 41.18631 -78.12439 36853 ft 519 kts 43°
2026-05-05 10:17 41.23668 -78.05540 36837 ft 520 kts 43°
2026-05-05 10:17 41.28591 -77.98783 36830 ft 520 kts 43°
2026-05-05 10:18 41.33588 -77.91905 36829 ft 520 kts 44°
2026-05-05 10:18 41.38608 -77.84980 36828 ft 520 kts 44°
2026-05-05 10:19 41.43623 -77.78047 36819 ft 519 kts 44°
2026-05-05 10:19 41.48631 -77.71106 36816 ft 519 kts 44°
2026-05-05 10:20 41.53643 -77.64144 36828 ft 519 kts 44°
2026-05-05 10:20 41.58649 -77.57172 36803 ft 520 kts 44°
2026-05-05 10:21 41.63620 -77.50233 36815 ft 520 kts 44°
2026-05-05 10:21 41.68327 -77.42871 36811 ft 523 kts 54°
2026-05-05 10:22 41.71979 -77.34436 36802 ft 526 kts 65°
2026-05-05 10:22 41.74800 -77.25379 36803 ft 527 kts 67°
2026-05-05 10:23 41.77076 -77.17791 36792 ft 528 kts 67°
2026-05-05 10:23 41.79839 -77.08670 36794 ft 527 kts 67°
2026-05-05 10:24 41.82596 -76.99687 36799 ft 527 kts 67°
2026-05-05 10:24 41.85391 -76.90602 36780 ft 526 kts 67°
2026-05-05 10:25 41.88178 -76.81505 36785 ft 527 kts 67°
2026-05-05 10:25 41.90953 -76.72406 36791 ft 526 kts 67°
2026-05-05 10:26 41.93703 -76.63353 36790 ft 526 kts 67°
2026-05-05 10:26 41.96462 -76.54235 36785 ft 526 kts 67°
2026-05-05 10:27 41.99214 -76.45111 36787 ft 526 kts 67°
2026-05-05 10:27 42.01960 -76.35981 36793 ft 526 kts 67°
2026-05-05 10:28 42.04680 -76.26902 36786 ft 526 kts 67°
2026-05-05 10:28 42.07407 -76.17765 36808 ft 526 kts 67°
2026-05-05 10:29 42.10129 -76.08616 36798 ft 525 kts 67°
2026-05-05 10:29 42.12809 -75.99574 36808 ft 525 kts 67°
2026-05-05 10:30 42.15507 -75.90441 36830 ft 525 kts 67°
2026-05-05 10:30 42.18201 -75.81288 36815 ft 526 kts 67°
2026-05-05 10:31 42.20892 -75.72115 36813 ft 526 kts 67°
2026-05-05 10:31 42.23574 -75.62936 36821 ft 525 kts 67°
2026-05-05 10:32 42.26250 -75.53748 36815 ft 525 kts 67°
2026-05-05 10:32 42.28914 -75.44566 36827 ft 525 kts 67°
2026-05-05 10:33 42.31572 -75.35373 36831 ft 525 kts 67°
2026-05-05 10:33 42.32572 -75.31905 36823 ft 525 kts 67°
2026-05-05 10:34 42.35205 -75.22753 36829 ft 525 kts 67°
2026-05-05 10:34 42.37844 -75.13544 36825 ft 525 kts 67°
2026-05-05 10:35 42.40474 -75.04338 36803 ft 524 kts 68°
2026-05-05 10:35 42.43055 -74.95269 36824 ft 524 kts 68°
2026-05-05 10:36 42.45673 -74.86036 36821 ft 525 kts 68°
2026-05-05 10:36 42.48289 -74.76777 36819 ft 526 kts 68°
2026-05-05 10:37 42.50897 -74.67511 36808 ft 526 kts 68°
2026-05-05 10:37 42.53482 -74.58292 36818 ft 527 kts 68°
2026-05-05 10:38 42.56081 -74.48990 36827 ft 527 kts 68°
2026-05-05 10:38 42.58670 -74.39687 36830 ft 527 kts 68°
2026-05-05 10:39 42.61257 -74.30360 36818 ft 528 kts 68°
2026-05-05 10:39 42.63838 -74.21014 36816 ft 528 kts 68°
2026-05-05 10:40 42.66395 -74.11726 36814 ft 528 kts 68°
2026-05-05 10:40 42.68959 -74.02375 36826 ft 528 kts 68°
2026-05-05 10:41 42.71442 -73.93274 36814 ft 506 kts 68°
2026-05-05 10:41 42.72646 -73.88854 36712 ft 493 kts 68°
2026-05-05 10:41 42.73829 -73.84508 36260 ft 488 kts 68°
2026-05-05 10:42 42.74917 -73.75579 35509 ft 475 kts 91°
2026-05-05 10:42 42.74825 -73.71109 35084 ft 471 kts 92°
2026-05-05 10:42 42.74711 -73.66675 34666 ft 467 kts 92°
2026-05-05 10:43 42.74615 -73.62274 34239 ft 463 kts 92°
2026-05-05 10:43 42.74545 -73.57911 33831 ft 459 kts 92°
2026-05-05 10:43 42.74495 -73.53578 33366 ft 456 kts 91°
2026-05-05 10:43 42.74456 -73.49280 32937 ft 452 kts 91°
2026-05-05 10:44 42.74421 -73.45031 32540 ft 448 kts 91°
2026-05-05 10:44 42.74385 -73.40814 32130 ft 444 kts 91°
2026-05-05 10:44 42.74348 -73.36637 31728 ft 440 kts 91°
2026-05-05 10:44 42.74308 -73.32537 31348 ft 436 kts 91°
2026-05-05 10:45 42.74266 -73.28425 30937 ft 433 kts 91°
2026-05-05 10:45 42.74222 -73.24338 30541 ft 430 kts 91°
2026-05-05 10:45 42.74178 -73.20291 30162 ft 427 kts 91°
2026-05-05 10:45 42.74133 -73.16267 29752 ft 424 kts 91°
2026-05-05 10:46 42.74086 -73.12264 29289 ft 422 kts 91°
2026-05-05 10:46 42.73891 -73.08312 28897 ft 417 kts 98°
2026-05-05 10:46 42.73467 -73.04440 28513 ft 413 kts 101°
2026-05-05 10:46 42.72966 -73.00607 28085 ft 410 kts 102°
2026-05-05 10:47 42.72517 -72.97223 27756 ft 407 kts 101°
2026-05-05 10:47 42.72031 -72.93437 27349 ft 404 kts 101°
2026-05-05 10:47 42.71571 -72.89688 26969 ft 401 kts 101°
2026-05-05 10:47 42.71125 -72.85951 26587 ft 399 kts 101°
2026-05-05 10:48 42.70689 -72.82235 26206 ft 397 kts 101°
2026-05-05 10:48 42.70257 -72.78545 25845 ft 394 kts 101°
2026-05-05 10:48 42.69826 -72.74871 25461 ft 392 kts 101°
2026-05-05 10:48 42.69397 -72.71215 25081 ft 391 kts 101°
2026-05-05 10:49 42.68966 -72.67570 24712 ft 389 kts 101°
2026-05-05 10:49 42.68536 -72.63943 24339 ft 388 kts 101°
2026-05-05 10:49 42.68103 -72.60330 23968 ft 387 kts 102°
2026-05-05 10:49 42.67666 -72.56727 23591 ft 386 kts 101°
2026-05-05 10:50 42.67229 -72.53134 23171 ft 385 kts 102°
2026-05-05 10:50 42.66792 -72.49556 22759 ft 383 kts 102°
2026-05-05 10:50 42.66356 -72.45987 22361 ft 381 kts 102°
2026-05-05 10:50 42.65922 -72.42441 21981 ft 379 kts 102°
2026-05-05 10:51 42.65490 -72.38912 21603 ft 378 kts 102°
2026-05-05 10:51 42.65063 -72.35439 21236 ft 376 kts 102°
2026-05-05 10:51 42.64632 -72.31946 20863 ft 375 kts 102°
2026-05-05 10:51 42.64212 -72.28435 20355 ft 378 kts 102°
2026-05-05 10:52 42.63802 -72.24897 19848 ft 381 kts 102°
2026-05-05 10:52 42.63391 -72.21326 19356 ft 383 kts 102°
2026-05-05 10:52 42.62977 -72.17747 18859 ft 385 kts 102°
2026-05-05 10:52 42.62560 -72.14151 18342 ft 387 kts 102°
2026-05-05 10:53 42.62136 -72.10528 17779 ft 389 kts 103°
2026-05-05 10:53 42.61710 -72.06903 17226 ft 390 kts 102°
2026-05-05 10:53 42.61280 -72.03267 16730 ft 389 kts 103°
2026-05-05 10:53 42.60850 -71.99744 16404 ft 384 kts 103°
2026-05-05 10:54 42.60407 -71.96188 16037 ft 380 kts 103°
2026-05-05 10:54 42.59966 -71.92660 15646 ft 377 kts 103°
2026-05-05 10:54 42.59536 -71.89212 15278 ft 373 kts 103°
2026-05-05 10:54 42.59104 -71.85753 14903 ft 371 kts 103°
2026-05-05 10:55 42.58674 -71.82314 14538 ft 368 kts 103°
2026-05-05 10:55 42.58197 -71.78916 14166 ft 364 kts 105°
2026-05-05 10:55 42.57660 -71.75570 13805 ft 362 kts 106°
2026-05-05 10:55 42.57115 -71.72245 13406 ft 360 kts 106°
2026-05-05 10:56 42.56578 -71.68944 13008 ft 357 kts 105°
2026-05-05 10:56 42.56054 -71.65663 12639 ft 354 kts 105°
2026-05-05 10:56 42.55538 -71.62415 12277 ft 351 kts 105°
2026-05-05 10:56 42.55025 -71.59192 11924 ft 347 kts 106°
2026-05-05 10:57 42.54433 -71.56031 11578 ft 343 kts 109°
2026-05-05 10:57 42.53777 -71.52930 11234 ft 340 kts 110°
2026-05-05 10:57 42.53118 -71.49864 10899 ft 337 kts 110°
2026-05-05 10:57 42.52468 -71.46816 10563 ft 335 kts 109°
2026-05-05 10:58 42.51833 -71.43789 10242 ft 333 kts 109°
2026-05-05 10:58 42.51206 -71.40787 9905 ft 330 kts 109°
2026-05-05 10:58 42.50591 -71.37828 9565 ft 319 kts 109°
2026-05-05 10:58 42.50011 -71.35004 9211 ft 304 kts 109°
2026-05-05 10:59 42.49473 -71.32297 8889 ft 291 kts 109°
2026-05-05 10:59 42.48955 -71.29686 8617 ft 286 kts 109°
2026-05-05 10:59 42.48422 -71.27028 8364 ft 298 kts 109°
2026-05-05 10:59 42.47883 -71.24338 8080 ft 301 kts 109°
2026-05-05 11:00 42.47329 -71.21575 7880 ft 299 kts 107°
2026-05-05 11:00 42.46791 -71.18898 7540 ft 300 kts 108°
2026-05-05 11:00 42.46415 -71.16102 7147 ft 299 kts 89°
2026-05-05 11:00 42.46886 -71.13406 6925 ft 290 kts 64°
2026-05-05 11:01 42.47772 -71.11012 6670 ft 287 kts 61°
2026-05-05 11:01 42.48687 -71.08572 6214 ft 293 kts 62°
2026-05-05 11:01 42.49848 -71.06373 5706 ft 283 kts 36°
2026-05-05 11:01 42.51506 -71.05105 5249 ft 268 kts 14°
2026-05-05 11:02 42.53227 -71.04277 4983 ft 255 kts 13°
2026-05-05 11:02 42.54846 -71.03487 4980 ft 246 kts 13°
2026-05-05 11:02 42.56475 -71.02694 4994 ft 249 kts 13°
2026-05-05 11:02 42.58098 -71.01899 4974 ft 246 kts 13°
2026-05-05 11:03 42.59695 -71.01210 4981 ft 238 kts
2026-05-05 11:03 42.61292 -71.00615 4960 ft 240 kts
2026-05-05 11:03 42.62928 -71.00031 4855 ft 243 kts
2026-05-05 11:03 42.64513 -70.99461 4723 ft 242 kts
2026-05-05 11:04 42.66130 -70.98858 4591 ft 239 kts 10°
2026-05-05 11:04 42.67608 -70.97806 4398 ft 248 kts 41°
2026-05-05 11:04 42.68519 -70.95836 4274 ft 248 kts 76°
2026-05-05 11:04 42.68685 -70.94319 4196 ft 245 kts 91°
2026-05-05 11:05 42.68648 -70.91201 4115 ft 253 kts 95°
2026-05-05 11:05 42.68552 -70.88813 4038 ft 251 kts 101°
2026-05-05 11:05 42.67966 -70.86670 3985 ft 237 kts 135°
2026-05-05 11:05 42.66721 -70.85339 3995 ft 223 kts 168°
2026-05-05 11:06 42.65255 -70.85144 4004 ft 208 kts 198°
2026-05-05 11:06 42.64351 -70.85527 3994 ft 204 kts 209°
2026-05-05 11:06 42.63091 -70.86406 4000 ft 204 kts 213°
2026-05-05 11:06 42.61850 -70.87327 3988 ft 201 kts 214°
2026-05-05 11:07 42.60635 -70.88228 3979 ft 198 kts 213°
2026-05-05 11:07 42.59424 -70.89120 4019 ft 198 kts 213°
2026-05-05 11:07 42.58156 -70.89924 3998 ft 203 kts 208°
2026-05-05 11:07 42.56390 -70.90847 3984 ft 207 kts 206°
2026-05-05 11:08 42.55462 -70.91305 3796 ft 212 kts 205°
2026-05-05 11:08 42.54073 -70.91982 3516 ft 212 kts 205°
2026-05-05 11:08 42.52716 -70.92641 3252 ft 208 kts 205°
2026-05-05 11:08 42.51365 -70.93297 2976 ft 203 kts 206°
2026-05-05 11:09 42.50084 -70.93916 2721 ft 186 kts 205°
2026-05-05 11:09 42.48921 -70.94481 2449 ft 169 kts 206°
2026-05-05 11:09 42.47874 -70.94987 2234 ft 150 kts 207°
2026-05-05 11:09 42.46950 -70.95437 2043 ft 136 kts 208°
2026-05-05 11:10 42.46042 -70.95882 1905 ft 139 kts 207°
2026-05-05 11:10 42.45167 -70.96306 1707 ft 126 kts 208°
2026-05-05 11:10 42.44352 -70.96705 1554 ft 129 kts 207°
2026-05-05 11:10 42.43500 -70.97118 1379 ft 131 kts 208°
2026-05-05 11:11 42.42634 -70.97538 1195 ft 132 kts 207°
2026-05-05 11:11 42.41764 -70.97961 992 ft 133 kts 207°
2026-05-05 11:11 42.40915 -70.98370 829 ft 127 kts 204°
2026-05-05 11:11 42.40083 -70.98775 654 ft 127 kts 204°
2026-05-05 11:12 42.39229 -70.99196 438 ft 135 kts 201°
2026-05-05 11:12 42.38363 -70.99601 239 ft 127 kts 200°
2026-05-05 11:12 42.37555 -71.00002 83 ft 124 kts 200°
2026-05-05 11:12 42.36743 -71.00401 32 ft 115 kts 192°
2026-05-05 11:13 42.36128 -71.00683 31 ft 67 kts 199°
2026-05-05 11:13 42.35832 -71.00830 30 ft 33 kts 200°
2026-05-05 11:13 42.35646 -71.00927 30 ft 18 kts 213°
2026-05-05 11:13 42.35641 -71.01086 30 ft 25 kts 286°
2026-05-05 11:14 42.35736 -71.01263 30 ft 11 kts 342°
2026-05-05 11:14 42.35830 -71.01251 30 ft 13 kts 327°
2026-05-05 11:14 42.35858 -71.01371 30 ft 14 kts 277°
2026-05-05 11:14 42.35873 -71.01487 30 ft 7 kts 281°
2026-05-05 11:15 42.35873 -71.01491 30 ft 0 kts 281°
2026-05-05 11:15 42.35873 -71.01492 30 ft 2 kts 281°
2026-05-05 11:15 42.35886 -71.01580 30 ft 13 kts 281°
2026-05-05 11:16 42.35924 -71.01625 30 ft 8 kts
2026-05-05 11:16 42.35979 -71.01604 30 ft 9 kts 20°
2026-05-05 11:16 42.36012 -71.01590 30 ft 3 kts
2026-05-05 11:16 42.36041 -71.01621 30 ft 2 kts 274°
2026-05-05 11:17 42.36035 -71.01642 30 ft 3 kts 252°
2026-05-05 11:17 42.36038 -71.01671 30 ft 4 kts 288°
2026-05-05 11:17 42.36045 -71.01696 30 ft 0 kts 289°